Erie, PA

9:36 PM EDT on October 21, 2019 (GMT -0400)
Erie International

Weather History for KERI - August, 2019

Change the Weather History Date:

Monday, August 5, 2019

  Actual Average Record
Temperature  
Mean Temperature 76 °F 71 °F  
Max Temperature 85 °F 79 °F 93 °F (1918)
Min Temperature 66 °F 64 °F 44 °F (1972)
Degree Days  
Heating Degree Days 0 0  
Month to date heating degree days 0 0  
Since 1 June heating degree days 38 68  
Since 1 July heating degree days 0 7  
Cooling Degree Days 11 7  
Month to date cooling degree days 42 35  
Year to date cooling degree days 507 410  
Since 1 June cooling degree days 474 371  
Growing Degree Days 25 (Base 50)    
Moisture  
Dew Point 62 °F    
Average Humidity 63    
Maximum Humidity 78    
Minimum Humidity 48    
Precipitation  
Precipitation 0.00 in 0.11 in 1.68 in (1977)
Month to date precipitation T 0.58  
Year to date precipitation 22.50 22.94  
Snow  
Snow 0.00 in 0.00 in - ()
Month to date snowfall 0.0 0.0  
Since 1 June snowfall 0.0 0.0  
Since 1 July snowfall 0.0 0.0  
Snow Depth 0.00 in    
Sea Level Pressure  
Sea Level Pressure 29.94 in    
Wind  
Wind Speed 6 mph (South)    
Max Wind Speed 13 mph    
Max Gust Speed 16 mph    
Visibility 10 miles    
Events      
T = Trace of Precipitation, MM = Missing Value Source: NWS Daily Summary

Daily Weather History Graph

Daily Weather History Graph

Search for Another Location

Airport or City:

Astronomy

Aug. 05, 2019 Rise Set
Actual Time 6:17 AM EDT 8:34 PM EDT
Civil Twilight 5:46 AM EDT 9:06 PM EDT
Nautical Twilight 5:08 AM EDT 9:44 PM EDT
Astronomical Twilight 4:25 AM EDT 10:26 PM EDT
Moon 11:37 AM EDT (8/5) 11:40 PM EDT (8/5)
Length of Visible Light 15h 19m
Length of Day
14h 17m
Waxing Crescent, 28% of the Moon is Illuminated
Aug 5
Waxing Crescent
Aug 7
First Quarter
Aug 15
Full
Aug 23
Last Quarter
Aug 30
New

Hourly Weather History & Observations

Time (EDT) Temp. Heat Index Dew Point Humidity Pressure Visibility Wind Dir Wind Speed Gust Speed Precip Events Conditions
12:51 AM 68.0 °F - 60.1 °F 76% 29.99 in 10.0 mi South 4.6 mph - N/A   Clear
1:51 AM 68.0 °F - 60.1 °F 76% 29.99 in 10.0 mi South 5.8 mph - N/A   Clear
2:51 AM 68.0 °F - 59.0 °F 73% 29.99 in 10.0 mi South 4.6 mph - N/A   Clear
3:51 AM 66.0 °F - 57.9 °F 75% 29.99 in 10.0 mi SSE 6.9 mph - N/A   Clear
4:51 AM 66.0 °F - 57.9 °F 75% 29.99 in 10.0 mi South 5.8 mph - N/A   Clear
5:51 AM 66.9 °F - 59.0 °F 76% 29.98 in 10.0 mi South 5.8 mph - N/A   Partly Cloudy
6:51 AM 66.9 °F - 59.0 °F 76% 29.98 in 10.0 mi SSE 6.9 mph - N/A   Clear
7:51 AM 70.0 °F - 59.0 °F 68% 29.98 in 10.0 mi SSE 6.9 mph - N/A   Clear
8:51 AM 75.0 °F - 61.0 °F 62% 29.99 in 10.0 mi South 9.2 mph - N/A   Clear
9:51 AM 79.0 °F - 63.0 °F 58% 29.99 in 10.0 mi SSE 6.9 mph - N/A   Clear
10:51 AM 82.0 °F 83.4 °F 64.0 °F 54% 29.98 in 10.0 mi Variable 6.9 mph - N/A   Clear
11:51 AM 84.0 °F 84.9 °F 63.0 °F 49% 29.97 in 10.0 mi SSW 9.2 mph - N/A   Clear
12:51 PM 82.0 °F 83.8 °F 64.9 °F 56% 29.96 in 10.0 mi NW 6.9 mph - N/A   Scattered Clouds
1:51 PM 82.0 °F 84.5 °F 66.9 °F 60% 29.95 in 10.0 mi NW 9.2 mph - N/A   Clear
2:51 PM 82.9 °F 85.4 °F 66.9 °F 58% 29.94 in 10.0 mi NNW 8.1 mph - N/A   Clear
3:51 PM 82.0 °F 84.5 °F 66.9 °F 60% 29.93 in 10.0 mi NNW 10.4 mph - N/A   Clear
4:51 PM 82.9 °F 84.6 °F 64.9 °F 54% 29.93 in 10.0 mi Variable 5.8 mph - N/A   Clear
5:51 PM 84.0 °F 84.5 °F 62.1 °F 47% 29.90 in 10.0 mi West 6.9 mph - N/A   Clear
6:51 PM 82.9 °F 83.3 °F 61.0 °F 47% 29.87 in 10.0 mi Variable 3.5 mph - N/A   Clear
7:51 PM 80.1 °F 81.9 °F 64.9 °F 60% 29.88 in 10.0 mi West 3.5 mph - N/A   Clear
8:51 PM 77.0 °F - 64.0 °F 64% 29.87 in 10.0 mi South 3.5 mph - N/A   Clear
9:51 PM 75.0 °F - 64.9 °F 71% 29.88 in 10.0 mi South 8.1 mph - N/A   Clear
10:51 PM 73.9 °F - 64.9 °F 73% 29.87 in 10.0 mi South 5.8 mph - N/A   Clear
11:51 PM 73.0 °F - 64.0 °F 73% 29.86 in 10.0 mi South 6.9 mph - N/A   Clear